Starlink 6202

operational
NORAD ID: 56896 Int'l Des: 2023-083 Owner: SPXS Country: US Constellation: starlink
LEOCIRCULAR

About Starlink 6202

Description loading...

Live Position

Loading 3D Globe...

Upcoming Passes

Altitude History

Altitude vs Time

uPlot chart will show altitude changes over time

Two-Line Element Set

1 56896U 23083W 26034.98305677 .00000922 00000-0 83318-4 0 9990
2 56896 43.0021 264.6188 0000779 264.7629 95.3125 15.02544626146719
Epoch: Feb 3, 2026 • Age: 23 hours

Current Status

Altitude 559.7 km
Velocity 7.58 km/s
Sub-Earth Point -5.91°S, 30.87°W
Launch Date Jun 12, 2023
Age 2.6 years
Type internet

Technical Details

Classification Payload
Mass 305.00 kg
Dry Mass 290.00 kg
Total Mass 305.00 kg
Length 0.20 m
Diameter 2.80 m
Span 9.00 m
Shape Box + pan
Manufacturer SPXS
Bus Type Starlink
Phase Status In Orbit
Owner/State SPXS/US

Large Constellations

Loading constellations...